Regional Weather Roundup
Issued by NWS Upton, NY

Current Version | Previous Version | Graphics & Text | Print | Product List | Glossary Off
Versions: 1 2 3 4 5 6 7 8 9 10 11 12 13 14 15 16 17 18 19 20 21 22 23 24 25 26 27 28 29 30 31 32 33 34 35 36 37 38 39 40 41 42 43 44 45 46 47 48 49 50

000
ASUS41 KOKX 232205
RWROKX

REGIONAL WEATHER ROUNDUP
NATIONAL WEATHER SERVICE NEW YORK NY
600 PM EDT WED JUL 23 2014

NOTE: "FAIR" INDICATES FEW OR NO CLOUDS BELOW 12,000 FEET WITH NO
SIGNIFICANT WEATHER AND/OR OBSTRUCTIONS TO VISIBILITY.

NYZ071-072-176-178-NJZ106-104-232300-
NEW YORK CITY METRO AREA


CITY           SKY/WX    TMP DP  RH WIND       PRES   REMARKS
CENTRAL PARK   PTSUNNY   85  72  65 MISG      29.81F HX  91
LAGUARDIA APRT MOSUNNY   84  71  65 S10       29.78F
KENNEDY INTL   PTSUNNY   80  70  71 S25G33    29.80F
NEWARK/LIBERTY PTSUNNY   92  70  48 SW17      29.77F HX  97
BRNX BOT. GARD   N/A     81  72  74 S3        29.81R
TETERBORO      MOSUNNY   96  71  44 S12G18    29.76F HX 103
$$

NYZ177-179-078>081-232300-
LONG ISLAND NEW YORK

CITY           SKY/WX    TMP DP  RH WIND       PRES   REMARKS
FARMINGDALE    SUNNY     79  70  74 SW17G25   29.81F
ISLIP          MOSUNNY   81  70  69 SW13G22   29.80F
SHIRLEY        SUNNY     78  69  73 S14       29.83F
WESTHAMPTON    SUNNY     77  68  73 SW15G22   29.84F
MONTAUK POINT    N/A     75  69  81 S12G18    29.83F
$$

NYZ052-065-067-232300-
HUDSON VALLEY

CITY           SKY/WX    TMP DP  RH WIND       PRES   REMARKS
WHITE PLAINS   MOSUNNY   82  71  69 S12G21    29.79F
NEWBURGH       MOSUNNY   86  72  62 W12       29.78F HX  92
MONTGOMERY     MOSUNNY   88  71  57 SW13      29.76F HX  94
POUGHKEEPSIE   MOSUNNY   89  72  56 S8        29.74F HX  96
ALBANY         TSTM      74  68  81 W13G25    29.77R
$$

NJZ001-105-106-008-010-013-015-019>022-104-232300-
NEW JERSEY

CITY           SKY/WX    TMP DP  RH WIND       PRES   REMARKS
NEWARK/LIBERTY PTSUNNY   92  70  48 SW17      29.77F HX  97
TETERBORO      MOSUNNY   96  71  44 S12G18    29.76F HX 103
CALDWELL       MOSUNNY   89  69  51 VRB7      29.78F HX  93
MORRISTOWN     MOSUNNY   90  72  55 SW10G17   29.79F HX  96
SOMERVILLE     MOSUNNY   87  71  58 VRB5      29.77F HX  93
LINDEN         FAIR      91  70  49 W7        29.79F HX  97
SUSSEX         PTSUNNY   87  71  58 SW5       29.79F HX  93
ANDOVER          N/A     84  72  67 SW5       29.80F
TRENTON        SUNNY     88  69  53 SW12      29.79F HX  92
MILLVILLE      SUNNY     83  73  72 S8        29.83F
ATLANTIC CITY  SUNNY     82  69  64 S12G21    29.84F
WRIGHTSTOWN    SUNNY     88  73  60 SW14      29.78F HX  96
TOMS RIVER     SUNNY     84  72  65 S13       29.82F
BELMAR         SUNNY     86  72  62 S10G20    29.81F HX  92
$$

PAZ047>061-062-071-232300-
EASTERN PENNSYLVANIA

CITY           SKY/WX    TMP DP  RH WIND       PRES   REMARKS
PHILADELPHIA   MOSUNNY   91  69  48 S15G28    29.80F HX  96
ALLENTOWN      TSTM      82  66  57 W21G35    29.83R
SCRANTON       PTSUNNY   86  68  54 W10       29.81F
$$

CTZ002-004>006-009-010-012-RIZ004-006-007-MAZ004-011-015-232300-
SOUTHERN NEW ENGLAND
 IN CT

CITY           SKY/WX    TMP DP  RH WIND       PRES   REMARKS
BRADLEY INTL   MOSUNNY   87  71  58 SW17      29.74F HX  93
HARTFORD       MOSUNNY   85  71  63 SW9       29.75F HX  90
DANBURY        SUNNY     84  71  65 S14       29.79F
WTRBRY/OXFORD  MOSUNNY   82  72  69 S12       29.83F
BRIDGEPORT     SUNNY     83  72  69 S16       29.78F
MERIDEN        SUNNY     83  72  69 S13       29.78F
NEW HAVEN      MOSUNNY   83  71  67 S10       29.79F
CHESTER        FAIR      81  70  69 SW10G17   29.82F
GROTON         SUNNY     75  69  81 SW8       29.80F
WILLIMANTIC    SUNNY     83  71  67 SW13G20   29.78F

 IN RI

CITY           SKY/WX    TMP DP  RH WIND       PRES   REMARKS
PROVIDENCE     MOSUNNY   82  68  62 SW15G22   29.80F
BLOCK ISLAND   SUNNY     73  68  83 SW17      29.83F
WESTERLY       SUNNY     77  67  71 SW15      29.83F

 IN MA

CITY           SKY/WX    TMP DP  RH WIND       PRES   REMARKS
BOSTON         NOT AVBL
WORCESTER      MOSUNNY   82  70  66 SW15      29.80F
WESTFIELD      MOSUNNY   87  70  56 SW15      29.75S HX  92
PROVINCETOWN   SUNNY     75  66  73 SW17G25   29.80S
NANTUCKET      MOSUNNY   71  67  87 SW14      29.85F
$$

ANZ330-335-338-340-345-350-353-355-232300-
COASTAL MARINE OBSERVATIONS


STATION/POSITION TIME  SKY/WX   TEMP    WIND        PRES    VSBY  WAVE
                                AIR SEA DIR/SP/G                  HT/PER
                 (UTC)          (F)     (DEG/KT/KT) (MB)    (MI)  (FT/S)
NY HARB ENTRANCE NOT AVBL
4S FIRE IS       NOT AVBL
23SW MTP         2200            74 71              1009.5          3/ 4
HUDSON CANYON    2200            76 75  210/ 14/ 16 1010.8          2/ 9
EXECUTION ROCKS  2200            81 71  200/ 16/ 23   N/A
WESTERN LI SOUND 2200            81     190/ 14/ 19   N/A           1/ 2
CENTRAL LI SOUND 2100            77 74  190/ 16/ 19   N/A           2/ 3
EASTERN LI SOUND 2100            75 68  200/ 12/ 16   N/A
ROBBINS REEF     2200            79     160/ 15/ 16   N/A
$$


>>>>>>>>>>>>>>>>>>>>>>>>>>>> KEY <<<<<<<<<<<<<<<<<<<<<<<<<<<
>                                                          <
>     SKY/WX - SKY CONDITION/PRESENT WEATHER               <
>     TMP    - TEMPERATURE IN FAHRENHEIT                   <
>     DP     - DEWPOINT IN FAHRENHEIT                      <
>     RH     - RELATIVE HUMIDITY IN PERCENT                <
>     WIND   - DIRECTION AND SPEED IN MPH                  <
>     PRES   - MEAN SEA LEVEL PRESSURE IN INCHES OF HG     <
>     WCI    - WIND CHILL INDEX                            <
>     VSB    - VISIBILITY IN MILES                         <
>     HX     - HEAT INDEX                                  <
>     TC     - TEMPERATURE IN CELSIUS                      <
>     VRB    - VARIABLE WIND DIRECTION                     <
>                                                          <
>>>>>>>>>>>>>>>>>>>>>>>>>>>> KEY <<<<<<<<<<<<<<<<<<<<<<<<<<<




USA.gov is the U.S. government's official web portal to all federal, state and local government web resources and services.